{"data":{"norad_id":69209,"epoch":"2026-09-20T00:02:18.304800Z","epoch_age_seconds":70022,"freshness":"FRESH","line1":"1 69209U 26114AD  26263.00160075  .00017379  00000+0  52428-3 0  9998","line2":"2 69209  53.1575 115.7487 0000846 114.6255 245.4836 15.34400189 19376","mean_motion":15.34400189,"eccentricity":8.46e-5,"inclination_deg":53.1575,"raan_deg":115.7487,"arg_perigee_deg":114.6255,"mean_anomaly_deg":245.4836,"bstar":0.00052428,"rev_number":1937,"period_min":93.847746521621,"perigee_km":462.12394342254,"apogee_km":463.28141349613,"semimajor_km":6840.8396784593,"source":"CELESTRAK","updated_at":"2026-09-20T09:00:44.101257Z"}}